Orangeburg, SC

11:49 PM EDT on March 23, 2017 (GMT -0400)
Orangeburg Municipal

Weather History for KOGB - January, 2013

Change the Weather History Date:

Saturday, January 26, 2013

  Actual Average Record
Temperature  
Mean Temperature 48 °F 47 °F  
Max Temperature 61 °F 57 °F 78 °F (2012)
Min Temperature 35 °F 36 °F 20 °F (1985)
Degree Days  
Heating Degree Days 17 19  
Month to date heating degree days 312 506  
Since 1 July heating degree days 1126 1410  
Cooling Degree Days 0 0  
Month to date cooling degree days 19 0  
Year to date cooling degree days 19 0  
Moisture  
Dew Point 30 °F    
Average Humidity 55    
Maximum Humidity 75    
Minimum Humidity 31    
Precipitation  
Precipitation 0.00 in 0.15 in 1.67 in (1978)
Month to date precipitation 0.38 3.25  
Year to date precipitation 0.38 3.25  
Sea Level Pressure  
Sea Level Pressure 30.21 in    
Wind  
Wind Speed 3 mph (ENE)    
Max Wind Speed 10 mph    
Max Gust Speed 14 mph    
Visibility 10 miles    
Events      
T = Trace of Precipitation, MM = Missing Value Source: NWS Daily Summary

Daily Weather History Graph

Daily Weather History Graph

Search for Another Location

Airport or City:

Trip Planner

Search our weather history database for the weather conditions in past years. The results will help you decide how hot, cold, wet, or windy it might be!

Date:

Astronomy

Jan. 26, 2013 Rise Set
Actual Time 7:23 AM EST 5:49 PM EST
Civil Twilight 6:56 AM EST 6:15 PM EST
Nautical Twilight 6:26 AM EST 6:45 PM EST
Astronomical Twilight 5:57 AM EST 7:15 PM EST
Moon 5:40 PM EST (1/26) 6:41 AM EST (1/26)
Length of Visible Light 11h 19m
Length of Day
10h 26m
Full, 100% of the Moon is Illuminated
Jan 26
Full
Jan 26
Full
Feb 3
Last Quarter
Feb 10
New
Feb 17
First Quarter

Hourly Weather History & Observations

Time (EST) Temp. Windchill Dew Point Humidity Pressure Visibility Wind Dir Wind Speed Gust Speed Precip Events Conditions
12:53 AM 37.9 °F - 24.1 °F 57% 30.17 in 10.0 mi Calm Calm - N/A   Overcast
1:53 AM 39.0 °F - 25.0 °F 57% 30.16 in 10.0 mi Calm Calm - N/A   Overcast
2:53 AM 39.0 °F - 25.0 °F 57% 30.14 in 10.0 mi Calm Calm - N/A   Overcast
3:53 AM 39.9 °F 37.8 °F 26.1 °F 58% 30.12 in 10.0 mi SW 3.5 mph - N/A   Overcast
4:53 AM 39.9 °F 36.7 °F 27.0 °F 60% 30.12 in 10.0 mi SW 4.6 mph - N/A   Overcast
5:53 AM 37.9 °F - 28.0 °F 68% 30.14 in 10.0 mi Calm Calm - N/A   Partly Cloudy
6:53 AM 37.9 °F - 28.0 °F 68% 30.16 in 10.0 mi Calm Calm - N/A   Mostly Cloudy
8:22 AM 39.2 °F - 30.2 °F 70% 30.18 in 10.0 mi Calm Calm - N/A   Scattered Clouds
8:53 AM 41.0 °F - 28.9 °F 62% 30.19 in 10.0 mi Calm Calm - N/A   Clear
9:53 AM 45.0 °F - 30.9 °F 58% 30.22 in 10.0 mi Calm Calm - N/A   Clear
10:53 AM 50.0 °F - 33.1 °F 52% 30.24 in 10.0 mi NE 3.5 mph - N/A   Clear
11:53 AM 54.0 °F - 33.1 °F 45% 30.23 in 10.0 mi NNE 5.8 mph - N/A   Clear
12:53 PM 57.0 °F - 30.0 °F 36% 30.20 in 10.0 mi NNW 6.9 mph - N/A   Clear
1:53 PM 57.0 °F - 30.0 °F 36% 30.19 in 10.0 mi Calm Calm - N/A   Clear
2:53 PM 59.0 °F - 28.9 °F 32% 30.18 in 10.0 mi Calm Calm - N/A   Clear
3:53 PM 57.9 °F - 30.9 °F 36% 30.19 in 10.0 mi East 3.5 mph - N/A   Clear
4:53 PM 57.0 °F - 32.0 °F 39% 30.20 in 10.0 mi ENE 6.9 mph - N/A   Clear
5:53 PM 53.1 °F - 32.0 °F 45% 30.23 in 10.0 mi ENE 4.6 mph - N/A   Clear
6:53 PM 48.9 °F - 33.1 °F 54% 30.25 in 10.0 mi ENE 6.9 mph - N/A   Clear
7:53 PM 46.0 °F 44.8 °F 32.0 °F 58% 30.27 in 10.0 mi East 3.5 mph - N/A   Clear
8:53 PM 43.0 °F 40.3 °F 32.0 °F 65% 30.28 in 10.0 mi ENE 4.6 mph - N/A   Clear
9:53 PM 42.1 °F 39.2 °F 32.0 °F 67% 30.30 in 10.0 mi ENE 4.6 mph - N/A   Clear
10:53 PM 41.0 °F 37.1 °F 30.9 °F 67% 30.32 in 10.0 mi ENE 5.8 mph - N/A   Clear
11:53 PM 39.0 °F - 30.9 °F 73% 30.34 in 10.0 mi Calm Calm - N/A   Clear